Location: Ferchesar
(52.6477°N, 12.4298°E)
Time: 08:55:29
(UTC+01:00)

Vanguard 3 - Pass Details

Date: 05 December 2021
Orbit: 508 x 3260 km, 33.3° (Epoch: 25 January)

Event Time Altitude Azimuth Distance (km) Brightness Sun altitude
Exits shadow 06:17:37 - 252° (WSW) 6,937 11.4 -15.2°
Reaches altitude 10° 06:21:38 10° 247° (WSW) 6,171 11.2 -14.6°
Maximum altitude 06:37:45 36° 191° (S) 3,771 10.6 -12.3°
Drops below altitude 10° 06:49:30 10° 131° (SE) 4,512 12.3 -10.7°
Sets 06:52:48 0° 123° (ESE) 5,158 13.3 -10.2°
